Regional Weather Roundup
Issued by NWS

Home | Current Version | Previous Version | Text Only | Print | Product List | Glossary Off
Versions: 1 2 3 4 5 6 7 8 9 10 11 12 13 14 15 16 17 18 19 20 21 22 23 24 25 26 27 28 29 30 31 32 33 34 35 36 37 38 39 40 41 42 43 44 45 46 47 48 49 50

000
ASUS43 KOAX 251702
RWRNE

WEATHER ROUNDUP FOR NEBRASKA
NATIONAL WEATHER SERVICE OMAHA NE
1100 AM CST THU DEC 25 2014

NOTES: SATELLITE DATA IS BEING USED TO AUGMENT CLOUD COVER ABOVE
       12000 FEET.
       "FAIR" INDICATES FEW OR NO CLOUDS BELOW 12,000 FEET WITH NO
       SIGNIFICANT WEATHER AND/OR OBSTRUCTIONS TO VISIBILITY.

  * THESE STATIONS DO NOT REPORT WEATHER SUCH AS RAIN...SNOW OR FOG.

NEZ001>004-019>022-054>056-251800-
NEBRASKA PANHANDLE

CITY           SKY/WX    TMP DP  RH WIND       PRES   REMARKS
SCOTTSBLUFF    LGT SNOW  30  27  88 NE18G25   29.57R VSB 3/4 WCI  18
ALLIANCE       CLOUDY    29  27  92 N17       29.56R FOG     WCI  17
CHADRON        SNOW      30  28  92 NE17      29.66R VSB 1/4 WCI  18
KIMBALL        CLOUDY    31  28  87 N14       29.51R WCI  21
SIDNEY         CLOUDY    34  26  72 N18       29.52R WCI  23
$$

NEZ057>060-069>072-079>082-251800-
SOUTHWEST NEBRASKA

CITY           SKY/WX    TMP DP  RH WIND       PRES   REMARKS
NORTH PLATTE   SUNNY     38  23  55 E9        29.48R WCI  31
IMPERIAL       SUNNY     36  22  56 NE9       29.46R WCI  29
LEXINGTON      SUNNY     34  24  67 SE6       29.49F WCI  29
MCCOOK         SUNNY     34  23  64 E5        29.45R WCI  30
OGALLALA       MOSUNNY   39  29  66 NE8       29.48R WCI  34
$$

NEZ005>010-023>029-035>040-094-251800-
NORTH CENTRAL NEBRASKA

CITY           SKY/WX    TMP DP  RH WIND       PRES   REMARKS
VALENTINE      CLOUDY    32  28  85 NE16      29.61S WCI  21
AINSWORTH      PTSUNNY   31  25  81 N13       29.58R WCI  21
BROKEN BOW     SUNNY     36  24  62 E7        29.50F WCI  30
O`NEILL        MOSUNNY   31  28  87 N12       29.58S WCI  22
ORD            SUNNY     34  24  67 CALM      29.55R
$$

NEZ041-046>049-061>064-073>077-083>087-251800-
SOUTH CENTRAL NEBRASKA

CITY           SKY/WX    TMP DP  RH WIND       PRES   REMARKS
GRAND ISLAND   SUNNY     37  25  61 SE9       29.55S WCI  30
AURORA         SUNNY     38  26  60 S15       29.55R WCI  30
HASTINGS       SUNNY     39  22  50 S12       29.52R WCI  32
HEBRON         SUNNY     41  26  55 S14G24    29.58F
HOLDREGE       SUNNY     36  22  57 S13       29.49R WCI  27
KEARNEY *      SUNNY     37  25  60 SE10      29.51S WCI  30
YORK           SUNNY     39  27  60 S17       29.57F WCI  30
$$

NEZ011>018-030>034-042>045-251800-
NORTHEAST NEBRASKA

CITY           SKY/WX    TMP DP  RH WIND       PRES   REMARKS
NORFOLK        MOSUNNY   35  26  69 SE8       29.60S WCI  29
ALBION         MOSUNNY   35  26  70 SE7       29.57F WCI  29
BLAIR          MOSUNNY   39  30  68 S17       29.65F WCI  30
COLUMBUS *     SUNNY     37  25  60 S9        29.62S WCI  31
FREMONT        MOSUNNY   40  31  69 SE12      29.64F WCI  33
TEKAMAH        CLOUDY    37  31  78 SE10      29.66F WCI  30
WAYNE          PTSUNNY   35  28  77 CALM      29.64R
$$

NEZ050>053-065>068-078-088>093-251800-
SOUTHEAST NEBRASKA

CITY           SKY/WX    TMP DP  RH WIND       PRES   REMARKS
LINCOLN        SUNNY     42  29  59 S16       29.63F
OMAHA EPPLEY   MOSUNNY   38  29  70 S20       29.69F WCI  28
BEATRICE       SUNNY     42  29  59 S18       29.62F
FALLS CITY     SUNNY     41  29  62 S17G24    29.71S
NEBRASKA CITY  SUNNY     40  29  64 S14G20    29.68F WCI  32
$$

NEZ044-045-051>053-067-251800-
OMAHA AREA

CITY           SKY/WX    TMP DP  RH WIND       PRES   REMARKS
OMAHA EPPLEY   MOSUNNY   38  29  70 S20       29.69F WCI  28
BLAIR          MOSUNNY   39  30  68 S17       29.65F WCI  30
FREMONT        MOSUNNY   40  31  69 SE12      29.64F WCI  33
MILLARD        MOSUNNY   39  29  68 SE12      29.67F WCI  32
OFFUTT AFB     MOSUNNY   38  30  72 SE12      29.68F WCI  31
WAHOO          FAIR      39  30  69 S13       29.64F WCI  31
$$


USA.gov is the U.S. government's official web portal to all federal, state and local government web resources and services.